This is the latest recevied weather packets stored in our database for station/object KQ4LLM. If no packets are shown the sender has not sent any weather packets the latest 10 day(s).
| Time | Temp. | Humidity | Pressure | Rain* | Wind** | Luminosity | Snow |
|---|---|---|---|---|---|---|---|
| 1788636711 | 27.78° C | 68% | - | 0 mm | - | - | - |
| 1788636407 | 28.89° C | 66% | - | 0 mm | - | - | - |
| 1788636103 | 30° C | 65% | - | 0 mm | - | - | - |
| 1788635803 | 30.56° C | 64% | - | 0 mm | - | - | - |
| 1788635500 | 31.11° C | 63% | - | 0 mm | - | - | - |
| 1788635199 | 31.67° C | 62% | - | 0 mm | - | - | - |
| 1788634898 | 32.78° C | 58% | - | 0 mm | - | - | - |
| 1788634592 | 33.33° C | 52% | - | 0 mm | - | - | - |
| 1788634292 | 33.33° C | 52% | - | 0 mm | - | - | - |
| 1788633986 | 33.89° C | 52% | - | 0 mm | - | - | - |
| 1788633685 | 33.89° C | 50% | - | 0 mm | - | - | - |
| 1788633384 | 33.33° C | 52% | - | 0 mm | - | - | - |
| 1788633080 | 33.89° C | 54% | - | 0 mm | - | - | - |
| 1788632774 | 34.44° C | 54% | - | 0 mm | - | - | - |
| 1788632474 | 34.44° C | 51% | - | 0 mm | - | - | - |
| 1788632168 | 34.44° C | 51% | - | 0 mm | - | - | - |
| 1788631868 | 35° C | 49% | - | 0 mm | - | - | - |
| 1788631563 | 35.56° C | 47% | - | 0 mm | - | - | - |
| 1788631258 | 36.11° C | 47% | - | 0 mm | - | - | - |
| 1788630957 | 35.56° C | 47% | - | 0 mm | - | - | - |
| 1788630653 | 35.56° C | 47% | - | 0 mm | - | - | - |
| 1788630348 | 35.56° C | 47% | - | 0 mm | - | - | - |
| 1788630043 | 35.56° C | 48% | - | 0 mm | - | - | - |
| 1788629740 | 35.56° C | 46% | - | 0 mm | - | - | - |
| 1788629435 | 35° C | 48% | - | 0 mm | - | - | - |
* Rain latest hour (hover to see other rain measurements)
** Current wind speed in m/s (hover to see current wind gust speed)